Home > Weather > Saint-Étienne > Past weeks

Flag for France Weather for the Past 2 Weeks in Saint-Étienne, France

Now
39 °F

Light rain. Partly sunny.


Feels Like: 39 °F
Forecast: 29 / 45 °F
Wind: 2 mph from North

Location: St-Etienne Boutheon

Current Time: Feb 11, 2016 at 6:41:25 PM

Latest Report: Feb 11, 2016 at 6:00 PM


Visibility: N/A

Pressure: 29.74 "Hg (27.86 "Hg at 529m altitude)

Humidity: 87%

Dew point: 36 °F

Location of Saint-ÉtienneLocation

Historic Weather in Saint-Étienne — Graph

°F

Saint-Étienne Temperature Yesterday

Maximum temperature yesterday: 46 °F (at 1:00 PM)
Minimum temperature yesterday: 34 °F (at 10:00 PM)
Average temperature yesterday: 40 °F

High & Low Weather Summary for the Past Weeks

 TemperatureHumidityPressure
High59 °F (Jan 28, 2:00 PM)100% (Jan 29, 10:30 AM)30.57 "Hg (Jan 29, 10:30 AM)
Low30 °F (Feb 11, 5:00 AM)42% (Feb 10, 2:30 PM)29.47 "Hg (Feb 9, 2:30 PM)
Average47 °F72%30.14 "Hg
* Reported Jan 27 5:00 PM — Feb 11 5:30 PM, Saint-Étienne, Weather by CustomWeather, © 2016

Note: Actual official high and low records may vary slightly from our data, if they occured in-between our weather recording intervals... More about our weather records

Advertising

Saint-Étienne Weather History for the Previous 24 Hours

 ConditionsComfort  
Time TempWeatherWind HumidityBarometerVisibility
5:30 PM
Thu, Feb 11
39 °FPartly sunny.3 mph87%29.71 "HgN/A
5:00 PM39 °FLight rain. Broken clouds.5 mph87%29.71 "HgN/A
4:30 PM39 °FLight rain. Broken clouds.8 mph87%29.71 "Hg4 mi
4:00 PM41 °FLight rain. Broken clouds.5 mph81%29.68 "HgN/A
3:30 PM41 °FLight rain. Broken clouds.3 mph81%29.68 "HgN/A
3:00 PM43 °FLight rain. Partly sunny.9 mph71%29.68 "HgN/A
2:34 PM45 °FPartly sunny.6 mph57%29.68 "HgN/A
2:00 PM46 °FBroken clouds.6 mph50%29.68 "HgN/A
1:30 PM46 °FBroken clouds.7 mph50%29.71 "HgN/A
1:00 PM45 °FScattered clouds.9 mph53%29.71 "HgN/A
12:30 PM46 °FScattered clouds.8 mph50%29.74 "HgN/A
12:00 PM45 °FScattered clouds.6 mph57%29.74 "HgN/A
11:30 AM41 °FSunny.7 mph61%29.77 "Hg10 mi
11:00 AM39 °FSunny.7 mph70%29.77 "Hg10 mi
10:30 AM37 °FSunny.7 mph75%29.80 "Hg10 mi
10:00 AM37 °FSunny.6 mph75%29.80 "Hg10 mi
9:30 AM36 °FSunny.6 mph81%29.77 "Hg10 mi
9:00 AM34 °FSunny.9 mph87%29.77 "Hg10 mi
8:30 AM32 °FSunny.5 mph93%29.80 "Hg10 mi
8:00 AM32 °FPassing clouds.3 mph87%29.80 "HgN/A
7:30 AM32 °FClear.5 mph87%29.80 "Hg10 mi
7:00 AM32 °FClear.1 mph93%29.80 "Hg10 mi
6:30 AM30 °FClear.No wind93%29.80 "Hg10 mi
6:00 AM30 °FClear.2 mph93%29.80 "Hg10 mi
5:30 AM30 °FPassing clouds.2 mph86%29.80 "HgN/A
5:00 AM30 °FClear.No wind86%29.80 "Hg10 mi
4:30 AM32 °FPassing clouds.No wind87%29.80 "Hg4 mi
4:00 AM32 °FPassing clouds.3 mph87%29.80 "HgN/A
3:00 AM34 °FPassing clouds.3 mph87%29.83 "HgN/A
2:30 AM34 °FPassing clouds.No wind87%29.80 "HgN/A
2:00 AM34 °FMostly cloudy.No wind93%29.80 "HgN/A
1:00 AM34 °FMostly cloudy.2 mph87%29.80 "HgN/A
12:30 AM34 °FMostly cloudy.3 mph87%29.80 "HgN/A
12:00 AM34 °FMostly cloudy.2 mph87%29.80 "HgN/A
11:30 PM
Wed, Feb 10
34 °FMostly cloudy.No wind87%29.80 "HgN/A
10:30 PM34 °FClear.2 mph87%29.77 "Hg10 mi
10:00 PM34 °FPassing clouds.3 mph93%29.77 "HgN/A
9:30 PM36 °FClear.3 mph81%29.77 "Hg10 mi
9:00 PM37 °FPartly cloudy.2 mph75%29.77 "HgN/A
8:30 PM37 °FPassing clouds.7 mph75%29.74 "HgN/A
8:00 PM39 °FPartly cloudy.6 mph61%29.74 "HgN/A
7:30 PM39 °FPassing clouds.6 mph65%29.74 "HgN/A
7:00 PM39 °FPassing clouds.5 mph61%29.71 "HgN/A
6:30 PM41 °FClear.7 mph57%29.71 "Hg10 mi
6:00 PM43 °FPartly sunny.7 mph53%29.71 "HgN/A
Weather by CustomWeather, © 2016

See weather overviewHow to use our weather pages